| time (UTC) | temp F | wind direction | speed MPH | gust MPH | rain 1hr in | rain 24hr in | rain mn in | humidity % | barometer mb |
| 20260505023047 | 48 | 144 | 0.0 | 0.0 | 0.00 | 0.00 | 0.00 | ||
| 20260505022535 | 48 | 332 | 0.0 | 0.0 | 0.00 | 0.00 | 0.00 | ||
| 20260505022022 | 49 | 325 | 0.0 | 0.0 | 0.00 | 0.00 | 0.00 | ||
| 20260505021509 | 49 | 320 | 0.0 | 0.0 | 0.00 | 0.00 | 0.00 | ||
| 20260505020956 | 50 | 325 | 0.0 | 0.0 | 0.00 | 0.00 | 0.00 | ||
| 20260505020443 | 50 | 18 | 0.0 | 0.0 | 0.00 | 0.00 | 0.00 | ||
| 20260505015930 | 50 | 315 | 0.0 | 0.0 | 0.00 | 0.00 | 0.00 | ||
| 20260505015417 | 50 | 142 | 0.0 | 0.0 | 0.00 | 0.00 | 0.00 | ||
| 20260505014904 | 50 | 40 | 0.0 | 0.0 | 0.00 | 0.00 | 0.00 | ||
| 20260505014352 | 51 | 337 | 0.0 | 0.0 | 0.00 | 0.00 | 0.00 | ||
| 20260505013839 | 51 | 121 | 0.0 | 0.0 | 0.00 | 0.00 | 0.00 | ||
| 20260505013326 | 51 | 189 | 0.0 | 0.0 | 0.00 | 0.00 | 0.00 | ||
| 20260505012813 | 51 | 115 | 0.0 | 0.0 | 0.00 | 0.00 | 0.00 | ||
| 20260505012300 | 52 | 350 | 0.0 | 0.0 | 0.00 | 0.00 | 0.00 | ||
| 20260505011235 | 52 | 220 | 0.0 | 0.0 | 0.00 | 0.00 | 0.00 | ||
| 20260505010723 | 52 | 281 | 0.0 | 0.0 | 0.00 | 0.00 | 0.00 | ||
| 20260505010209 | 52 | 22 | 0.0 | 0.0 | 0.00 | 0.00 | 0.00 | ||
| 20260505005656 | 53 | 180 | 0.0 | 0.0 | 0.00 | 0.00 | 0.00 | ||
| 20260505005143 | 53 | 136 | 0.0 | 0.0 | 0.00 | 0.00 | 0.00 | ||
| 20260505004630 | 53 | 60 | 0.0 | 0.0 | 0.00 | 0.00 | 0.00 | ||
| 20260505004117 | 54 | 138 | 0.0 | 0.0 | 0.00 | 0.00 | 0.00 | ||
| 20260505003605 | 54 | 154 | 0.0 | 0.0 | 0.00 | 0.00 | 0.00 | ||
| 20260505003052 | 54 | 158 | 0.0 | 0.0 | 0.00 | 0.00 | 0.00 | ||
| 20260505002539 | 53 | 136 | 0.0 | 0.0 | 0.00 | 0.00 | 0.00 | ||
| 20260505002026 | 54 | 170 | 0.0 | 0.0 | 0.00 | 0.00 | 0.00 | ||
| 20260505001513 | 55 | 150 | 0.0 | 0.0 | 0.00 | 0.00 | 0.00 | ||
| 20260505001001 | 56 | 333 | 0.0 | 0.0 | 0.00 | 0.00 | 0.00 | ||
| 20260505000448 | 56 | 120 | 0.0 | 0.0 | 0.00 | 0.00 | 0.00 | ||
| 20260504235935 | 57 | 150 | 0.0 | 0.0 | 0.00 | 0.00 | 0.00 | ||
| 20260504235422 | 58 | 175 | 0.0 | 0.0 | 0.00 | 0.00 | 0.00 | ||
| 20260504234909 | 58 | 152 | 0.0 | 0.0 | 0.00 | 0.00 | 0.00 | ||
| 20260504234356 | 58 | 180 | 0.0 | 2.0 | 0.00 | 0.00 | 0.00 | ||
| 20260504233843 | 59 | 151 | 0.0 | 0.0 | 0.00 | 0.00 | 0.00 | ||
| 20260504233330 | 59 | 148 | 0.0 | 1.0 | 0.00 | 0.00 | 0.00 | ||
| 20260504232818 | 60 | 142 | 0.0 | 6.0 | 0.00 | 0.00 | 0.00 | ||
| 20260504232306 | 60 | 132 | 0.0 | 4.0 | 0.00 | 0.00 | 0.00 | ||
| 20260504231752 | 61 | 156 | 0.0 | 0.0 | 0.00 | 0.00 | 0.00 | ||
| 20260504231239 | 62 | 156 | 0.0 | 0.0 | 0.00 | 0.00 | 0.00 | ||
| 20260504230726 | 63 | 154 | 0.0 | 0.0 | 0.00 | 0.00 | 0.00 | ||
| 20260504230214 | 63 | 150 | 0.0 | 0.0 | 0.00 | 0.00 | 0.00 | ||
| 20260504225700 | 62 | 172 | 0.0 | 1.0 | 0.00 | 0.00 | 0.00 | ||
| 20260504225148 | 62 | 144 | 0.0 | 0.0 | 0.00 | 0.00 | 0.00 | ||
| 20260504224635 | 63 | 159 | 0.0 | 0.0 | 0.00 | 0.00 | 0.00 | ||
| 20260504224122 | 64 | 155 | 0.0 | 0.0 | 0.00 | 0.00 | 0.00 | ||
| 20260504223609 | 64 | 167 | 0.0 | 2.0 | 0.00 | 0.00 | 0.00 | ||
| 20260504223056 | 64 | 155 | 0.0 | 4.0 | 0.00 | 0.00 | 0.00 | ||
| 20260504222543 | 64 | 159 | 0.0 | 2.0 | 0.00 | 0.00 | 0.00 | ||
| 20260504222031 | 64 | 173 | 0.0 | 0.0 | 0.00 | 0.00 | 0.00 | ||
| 20260504221518 | 63 | 150 | 0.0 | 3.0 | 0.00 | 0.00 | 0.00 | ||
| 20260504221005 | 63 | 145 | 0.0 | 0.0 | 0.00 | 0.00 | 0.00 | ||
| 20260504220452 | 63 | 148 | 0.0 | 0.0 | 0.00 | 0.00 | 0.00 | ||
| 20260504215939 | 63 | 158 | 0.0 | 1.0 | 0.00 | 0.00 | 0.00 | ||
| 20260504214913 | 66 | 142 | 0.0 | 2.0 | 0.00 | 0.00 | 0.00 | ||
| 20260504214401 | 66 | 146 | 0.0 | 0.0 | 0.00 | 0.00 | 0.00 | ||
| 20260504213848 | 66 | 136 | 0.0 | 4.0 | 0.00 | 0.00 | 0.00 | ||
| 20260504213335 | 66 | 144 | 0.0 | 2.0 | 0.00 | 0.00 | 0.00 | ||
| 20260504212822 | 66 | 152 | 0.0 | 3.0 | 0.00 | 0.00 | 0.00 | ||
| 20260504212309 | 65 | 161 | 0.0 | 0.0 | 0.00 | 0.00 | 0.00 | ||
| 20260504211757 | 64 | 169 | 0.0 | 0.0 | 0.00 | 0.00 | 0.00 | ||
| 20260504211244 | 64 | 177 | 0.0 | 0.0 | 0.00 | 0.00 | 0.00 | ||
| 20260504210731 | 64 | 162 | 0.0 | 0.0 | 0.00 | 0.00 | 0.00 | ||
| 20260504210218 | 63 | 160 | 0.0 | 0.0 | 0.00 | 0.00 | 0.00 | ||
| 20260504205705 | 61 | 132 | 0.0 | 0.0 | 0.00 | 0.00 | 0.00 | ||
| 20260504205152 | 61 | 337 | 0.0 | 0.0 | 0.00 | 0.00 | 0.00 | ||
| 20260504204639 | 62 | 137 | 0.0 | 0.0 | 0.00 | 0.00 | 0.00 | ||
| 20260504204126 | 62 | 157 | 0.0 | 0.0 | 0.00 | 0.00 | 0.00 | ||
| 20260504203614 | 62 | 157 | 0.0 | 0.0 | 0.00 | 0.00 | 0.00 | ||
| 20260504203101 | 61 | 236 | 0.0 | 0.0 | 0.00 | 0.00 | 0.00 | ||
| 20260504202548 | 59 | 199 | 0.0 | 0.0 | 0.00 | 0.00 | 0.00 | ||
| 20260504202035 | 58 | 160 | 0.0 | 0.0 | 0.00 | 0.00 | 0.00 | ||
| 20260504201522 | 58 | 197 | 0.0 | 0.0 | 0.00 | 0.00 | 0.00 | ||
| 20260504201010 | 58 | 285 | 0.0 | 0.0 | 0.00 | 0.00 | 0.00 | ||
| 20260504200457 | 57 | 325 | 0.0 | 0.0 | 0.00 | 0.00 | 0.00 | ||
| 20260504195944 | 54 | 187 | 0.0 | 0.0 | 0.00 | 0.00 | 0.00 | ||
| 20260504195431 | 53 | 45 | 0.0 | 0.0 | 0.00 | 0.00 | 0.00 | ||
| 20260504194918 | 53 | 341 | 0.0 | 0.0 | 0.00 | 0.00 | 0.00 | ||
| 20260504194405 | 54 | 20 | 0.0 | 0.0 | 0.00 | 0.00 | 0.00 | ||
| 20260504193852 | 55 | 312 | 0.0 | 0.0 | 0.00 | 0.00 | 0.00 | ||
| 20260504193339 | 58 | 167 | 0.0 | 0.0 | 0.00 | 0.00 | 0.00 | ||
| 20260504192827 | 59 | 310 | 0.0 | 0.0 | 0.00 | 0.00 | 0.00 | ||
| 20260504192314 | 60 | 155 | 0.0 | 0.0 | 0.00 | 0.00 | 0.00 | ||
| 20260504191248 | 62 | 144 | 0.0 | 0.0 | 0.00 | 0.00 | 0.00 | ||
| 20260504190735 | 61 | 337 | 0.0 | 0.0 | 0.00 | 0.00 | 0.00 | ||
| 20260504190223 | 59 | 141 | 0.0 | 1.0 | 0.00 | 0.00 | 0.00 | ||
| 20260504185710 | 58 | 142 | 0.0 | 0.0 | 0.00 | 0.00 | 0.00 | ||
| 20260504185200 | 58 | 160 | 0.0 | 0.0 | 0.00 | 0.00 | 0.00 | ||
| 20260504184131 | 53 | 337 | 0.0 | 0.0 | 0.00 | 0.00 | 0.00 | ||
| 20260504183618 | 52 | 127 | 0.0 | 5.0 | 0.00 | 0.00 | 0.00 | ||
| 20260504183105 | 53 | 337 | 0.0 | 1.0 | 0.00 | 0.00 | 0.00 | ||
| 20260504182552 | 55 | 323 | 0.0 | 5.0 | 0.00 | 0.00 | 0.00 | ||
| 20260504182040 | 57 | 15 | 0.0 | 2.0 | 0.00 | 0.00 | 0.00 | ||
| 20260504181527 | 58 | 145 | 0.0 | 1.0 | 0.00 | 0.00 | 0.00 | ||
| 20260504181014 | 60 | 172 | 0.0 | 2.0 | 0.00 | 0.00 | 0.00 | ||
| 20260504180501 | 63 | 148 | 0.0 | 5.0 | 0.00 | 0.00 | 0.00 | ||
| 20260504175948 | 66 | 145 | 0.0 | 9.0 | 0.00 | 0.00 | 0.00 | ||
| 20260504175436 | 68 | 315 | 0.0 | 3.0 | 0.00 | 0.00 | 0.00 | ||
| 20260504174923 | 70 | 307 | 0.0 | 1.0 | 0.00 | 0.00 | 0.00 | ||
| 20260504174410 | 72 | 169 | 0.0 | 0.0 | 0.00 | 0.00 | 0.00 | ||
| 20260504173857 | 72 | 300 | 0.0 | 0.0 | 0.00 | 0.00 | 0.00 | ||
| 20260504173344 | 72 | 322 | 0.0 | 0.0 | 0.00 | 0.00 | 0.00 | ||
| 20260504172831 | 71 | 315 | 0.0 | 0.0 | 0.00 | 0.00 | 0.00 | ||
| 20260504172318 | 70 | 191 | 0.0 | 0.0 | 0.00 | 0.00 | 0.00 | ||
| 20260504171805 | 69 | 337 | 0.0 | 0.0 | 0.00 | 0.00 | 0.00 | ||
| 20260504170740 | 69 | 315 | 0.0 | 4.0 | 0.00 | 0.00 | 0.00 | ||
| 20260504150744 | 49 | 156 | 0.0 | 0.0 | 0.00 | 0.00 | 0.00 | ||
| 20260504150232 | 49 | 125 | 0.0 | 2.0 | 0.00 | 0.00 | 0.00 | ||
| 20260504141023 | 46 | 110 | 0.0 | 0.0 | 0.00 | 0.00 | 0.00 | ||
| 20260504140510 | 46 | 107 | 0.0 | 0.0 | 0.00 | 0.00 | 0.00 | ||
| 20260504130236 | 45 | 337 | 0.0 | 0.0 | 0.00 | 0.00 | 0.00 | ||
| 20260504110240 | 42 | 337 | 0.0 | 0.0 | 0.00 | 0.00 | 0.00 | ||
| 20260504100519 | 42 | 112 | 0.0 | 0.0 | 0.00 | 0.00 | 0.00 | ||
| 20260504081549 | 45 | 120 | 0.0 | 0.0 | 0.00 | 0.00 | 0.00 | ||
| 20260504081036 | 44 | 337 | 0.0 | 0.0 | 0.00 | 0.00 | 0.00 | ||
| 20260504080524 | 44 | 106 | 0.0 | 0.0 | 0.00 | 0.00 | 0.00 | ||
| 20260504070250 | 44 | 45 | 0.0 | 0.0 | 0.00 | 0.00 | 0.00 | ||
| 20260504050254 | 47 | 337 | 0.0 | 0.0 | 0.00 | 0.00 | 0.00 | ||
| 20260504045741 | 48 | 306 | 0.0 | 0.0 | 0.00 | 0.00 | 0.00 | ||
| 20260504045229 | 48 | 337 | 0.0 | 0.0 | 0.00 | 0.00 | 0.00 | ||
| 20260504044203 | 48 | 337 | 0.0 | 0.0 | 0.00 | 0.00 | 0.00 | ||
| 20260504043650 | 49 | 337 | 0.0 | 0.0 | 0.00 | 0.00 | 0.00 | ||
| 20260504043137 | 49 | 337 | 0.0 | 0.0 | 0.00 | 0.00 | 0.00 | ||
| 20260504042624 | 49 | 346 | 0.0 | 0.0 | 0.00 | 0.00 | 0.00 | ||
| 20260504042111 | 49 | 343 | 0.0 | 0.0 | 0.00 | 0.00 | 0.00 | ||
| 20260504041559 | 49 | 337 | 0.0 | 0.0 | 0.00 | 0.00 | 0.00 | ||
| 20260504041046 | 49 | 337 | 0.0 | 0.0 | 0.00 | 0.00 | 0.00 | ||
| 20260504040533 | 49 | 337 | 0.0 | 0.0 | 0.00 | 0.00 | 0.00 | ||
| 20260504040020 | 49 | 103 | 0.0 | 0.0 | 0.00 | 0.00 | 0.00 | ||
| 20260504035507 | 50 | 90 | 0.0 | 0.0 | 0.00 | 0.00 | 0.00 | ||
| 20260504034954 | 50 | 337 | 0.0 | 0.0 | 0.00 | 0.00 | 0.00 | ||
| 20260504034441 | 51 | 337 | 0.0 | 0.0 | 0.00 | 0.00 | 0.00 | ||
| 20260504033929 | 51 | 337 | 0.0 | 0.0 | 0.00 | 0.00 | 0.00 | ||
| 20260504033416 | 52 | 337 | 0.0 | 0.0 | 0.00 | 0.00 | 0.00 | ||
| 20260504032903 | 52 | 337 | 0.0 | 0.0 | 0.00 | 0.00 | 0.00 | ||
| 20260504032350 | 53 | 91 | 0.0 | 0.0 | 0.00 | 0.00 | 0.00 | ||
| 20260504031837 | 53 | 331 | 0.0 | 0.0 | 0.00 | 0.00 | 0.00 | ||
| 20260504031325 | 53 | 337 | 0.0 | 0.0 | 0.00 | 0.00 | 0.00 | ||
| 20260504030811 | 54 | 180 | 0.0 | 0.0 | 0.00 | 0.00 | 0.00 | ||
| 20260504030259 | 55 | 326 | 0.0 | 0.0 | 0.00 | 0.00 | 0.00 | ||
| 20260504025746 | 55 | 114 | 0.0 | 0.0 | 0.00 | 0.00 | 0.00 | ||
| 20260504025233 | 55 | 315 | 0.0 | 0.0 | 0.00 | 0.00 | 0.00 | ||
| 20260504024720 | 56 | 90 | 0.0 | 0.0 | 0.00 | 0.00 | 0.00 | ||
| 20260504024207 | 56 | 202 | 0.0 | 0.0 | 0.00 | 0.00 | 0.00 | ||
| 20260504023655 | 57 | 123 | 0.0 | 0.0 | 0.00 | 0.00 | 0.00 | ||
| 20260504023143 | 57 | 270 | 0.0 | 0.0 | 0.00 | 0.00 | 0.00 |